Weather History for KLCH - March, 2013

Change the Weather History Date:

Friday, March 8, 2013

  Actual Average Record
Temperature  
Mean Temperature 58 °F 60 °F  
Max Temperature 72 °F 70 °F 90 °F (1911)
Min Temperature 43 °F 50 °F 29 °F (1989)
Degree Days  
Heating Degree Days 7 7  
Month to date heating degree days 92 58  
Since 1 July heating degree days 1061 1340  
Cooling Degree Days 0 1  
Month to date cooling degree days 0 8  
Year to date cooling degree days 30 31  
Growing Degree Days 8 (Base 50)    
Moisture  
Dew Point 47 °F    
Average Humidity 69    
Maximum Humidity 96    
Minimum Humidity 42    
Precipitation  
Precipitation 0.00 in 0.12 in 2.54 in (1988)
Month to date precipitation T 0.98  
Year to date precipitation 16.59 9.67  
Snow  
Snow 0.00 in 0.00 in 0.00 in ()
Month to date snowfall 0.0 0.0  
Since 1 July snowfall 0.0 0.1  
Snow Depth 0.00 in    
Sea Level Pressure  
Sea Level Pressure 30.23 in    
Wind  
Wind Speed 7 mph (ESE)    
Max Wind Speed 16 mph    
Max Gust Speed 21 mph    
Visibility 9 miles    
Events      
T = Trace of Precipitation, MM = Missing Value Source: NWS Daily Summary

Daily Weather History Graph

Daily Weather History Graph

Search for Another Location

Airport or City:

Trip Planner

Search our weather history database for the weather conditions in past years. The results will help you decide how hot, cold, wet, or windy it might be!

Date:

Astronomy

Mar. 08, 2013 Rise Set
Actual Time 6:30 AM CST 6:16 PM CST
Civil Twilight 6:06 AM CST 6:40 PM CST
Nautical Twilight 5:39 AM CST 7:08 PM CST
Astronomical Twilight 5:11 AM CST 7:36 PM CST
Moon 4:03 AM CST (3/8) 3:22 PM CST (3/8)
Length of Visible Light 12h 34m
Length of Day
11h 46m
Waning Crescent, 11% of the Moon is Illuminated
Mar 8
Waning Crescent
Mar 11
New
Mar 19
First Quarter
Mar 27
Full
Apr 2
Last Quarter

Hourly Weather History & Observations

Time (CST) Temp. Windchill Dew Point Humidity Pressure Visibility Wind Dir Wind Speed Gust Speed Precip Events Conditions
12:53 AM 43.0 °F - 41.0 °F 93% 30.26 in 10.0 mi Calm Calm - N/A   Clear
1:53 AM 43.0 °F - 39.9 °F 89% 30.25 in 10.0 mi Calm Calm - N/A   Clear
2:53 AM 45.0 °F - 41.0 °F 86% 30.23 in 10.0 mi Calm Calm - N/A   Clear
3:53 AM 45.0 °F 43.5 °F 42.1 °F 90% 30.22 in 9.0 mi ENE 3.5 mph - N/A   Clear
4:53 AM 46.0 °F 44.8 °F 43.0 °F 89% 30.23 in 8.0 mi ENE 3.5 mph - N/A   Clear
5:53 AM 45.0 °F 43.5 °F 43.0 °F 93% 30.25 in 5.0 mi ENE 3.5 mph - N/A   Clear
6:53 AM 46.9 °F - 44.1 °F 90% 30.26 in 4.0 mi ENE 5.8 mph - N/A   Clear
7:53 AM 53.1 °F - 48.9 °F 86% 30.27 in 6.0 mi East 5.8 mph - N/A   Clear
8:53 AM 57.9 °F - 52.0 °F 81% 30.29 in 9.0 mi East 8.1 mph - N/A   Clear
9:53 AM 62.1 °F - 53.1 °F 72% 30.30 in 10.0 mi ESE 11.5 mph - N/A   Partly Cloudy
10:53 AM 66.0 °F - 46.9 °F 50% 30.30 in 10.0 mi East 11.5 mph - N/A   Clear
11:53 AM 68.0 °F - 48.9 °F 50% 30.28 in 10.0 mi ESE 12.7 mph - N/A   Scattered Clouds
12:53 PM 69.1 °F - 50.0 °F 51% 30.26 in 10.0 mi SE 9.2 mph - N/A   Partly Cloudy
1:53 PM 70.0 °F - 48.9 °F 47% 30.23 in 10.0 mi ESE 9.2 mph - N/A   Clear
2:53 PM 69.1 °F - 48.0 °F 47% 30.21 in 10.0 mi ESE 9.2 mph - N/A   Clear
3:53 PM 70.0 °F - 48.0 °F 46% 30.19 in 10.0 mi ESE 12.7 mph - N/A   Clear
4:53 PM 68.0 °F - 45.0 °F 43% 30.18 in 10.0 mi ESE 13.8 mph - N/A   Clear
5:53 PM 63.0 °F - 45.0 °F 52% 30.19 in 10.0 mi SE 8.1 mph - N/A   Clear
6:53 PM 59.0 °F - 46.9 °F 64% 30.21 in 10.0 mi SE 4.6 mph - N/A   Clear
7:53 PM 57.0 °F - 46.9 °F 69% 30.22 in 10.0 mi SE 3.5 mph - N/A   Clear
8:53 PM 54.0 °F - 46.9 °F 77% 30.23 in 10.0 mi SE 5.8 mph - N/A   Clear
9:53 PM 57.0 °F - 48.9 °F 74% 30.17 in 10.0 mi ESE 6.9 mph - N/A   Clear
10:53 PM 57.0 °F - 48.0 °F 72% 30.16 in 10.0 mi SE 5.8 mph - N/A   Clear
11:53 PM 55.9 °F - 50.0 °F 80% 30.14 in 10.0 mi South 4.6 mph - N/A   Clear